Location: Nickerson Gardens
(33.9320°N, 118.2484°W)
Time: 05:19:49
(UTC+00:00)

N. Korean satellite - Pass Details

Date: 22 January 2021
Orbit: 451 x 502 km, 97.2° (Epoch: 08 March)

Event Time Altitude Azimuth Distance (km) Brightness Sun altitude
Rises 13:57:14 0° 354° (N) 2,503 10.0 -12.2°
Reaches altitude 10° 13:59:38 10° 338° (NNW) 1,614 8.9 -11.8°
Maximum altitude 14:02:17 21° 288° (WNW) 1,084 7.7 -11.2°
Drops below altitude 10° 14:04:55 10° 238° (WSW) 1,589 8.8 -10.7°
Sets 14:07:15 0° 221° (SW) 2,452 9.9 -10.2°
